Location: ??????
(38.3184°N, 23.6932°E)
Time: 02:26:53
(UTC+00:00)

H-2A R/B - Pass Details

Date: 16 October 2021
Orbit: 732 x 837 km, 98.2° (Epoch: 04 December)

Event Time Altitude Azimuth Distance (km) Brightness Sun altitude
Rises 16:41:08 0° 171° (S) 3,285 5.2 -11.6°
Reaches altitude 10° 16:43:26 10° 173° (S) 2,374 4.5 -12.0°
Maximum altitude 16:48:41 73° 258° (WSW) 858 2.4 -13.1°
Drops below altitude 10° 16:54:07 10° 343° (NNW) 2,443 4.8 -14.1°
Sets 16:56:31 0° 346° (NNW) 3,388 5.5 -14.6°
